CAPE
1072 1144 1383 1778 1812 1687 1881 1900 1956 1811 1723 1720 1706 1790 1888 1934 1877 1923 1901 1891 1895 1975 2062 2064 2101 2070 2101 2033 2077 1990 2123 2121 2105 1966 1758 1634 1618 1629 1578 1473 1143 940 754 668 773 848 819 852 1023 1029 1170 1156 1280 1278 1122 1008 900 991 1074 1055 1021 1047 1000 993 988 897 792 744 620 757 712 820 793 694 482 368 200 148 140 157 197 298 98 64 104
1098 1214 1503 1702 1817 1781 1886 1855 1892 1773 1626 1587 1648 1831 1885 1836 1879 1827 1900 1882 1966 2025 2050 2093 2087 2100 2044 2080 2034 2022 2023 2027 2037 1908 1777 1715 1708 1657 1456 1322 1228 1111 873 755 692 778 866 856 924 897 1039 1207 1373 1271 895 794 815 826 881 889 841 899 1005 1057 1049 984 912 841 727 672 661 632 680 562 456 342 265 259 242 229 199 139 103 79 106
1165 1371 1587 1637 1761 1768 1846 1811 1745 1727 1548 1618 1756 1833 1878 1874 1881 1895 1842 1858 1979 2047 2096 2083 2022 2085 2048 2085 2000 1992 1981 2114 2086 1963 1790 1726 1656 1526 1270 1046 946 898 937 874 798 734 680 662 737 883 995 1130 1150 899 787 812 691 684 783 846 893 968 948 1018 1020 925 810 795 696 618 614 660 560 616 534 294 164 129 117 117 105 181 216 188 125
1322 1500 1504 1673 1628 1811 1955 1785 1698 1589 1466 1620 1728 1746 1843 1639 1841 1880 1881 2039 2055 2093 2074 2079 2103 2055 2087 2022 2023 2031 2043 2058 2056 1973 1795 1672 1554 1399 1333 1054 929 990 939 872 733 619 666 697 789 748 771 831 666 582 546 765 737 684 671 882 913 810 728 641 544 510 512 514 538 437 395 271 343 477 424 399 353 179 106 93 101 67 37 20 27
1400 1495 1453 1416 1501 1805 1893 1786 1738 1651 1493 1592 1753 1713 1810 1744 1904 1899 1952 1989 1960 2018 2051 2023 2065 2109 2121 2097 2179 2126 2102 2010 2023 1832 1720 1659 1556 1468 1412 1263 1196 1227 1159 1110 1108 1082 768 666 670 700 688 617 577 472 507 680 733 749 707 663 778 798 630 632 610 449 422 399 342 202 189 195 278 315 322 348 396 130 84 76 52 72 81 120 94
1419 1411 1415 1474 1507 1752 1846 1798 1665 1612 1484 1540 1620 1741 1716 1791 1898 1924 1956 2029 1997 2019 2026 2098 2112 2096 2160 2166 2124 2080 2043 2041 1980 1759 1637 1564 1691 1505 1449 1386 1405 1394 1360 1295 1202 1045 844 637 651 717 792 543 552 651 537 607 602 682 641 759 785 844 887 749 945 904 373 268 286 61 126 163 123 267 322 248 203 186 118 86 80 46 54 130 42
1333 1350 1382 1345 1404 1697 1854 1742 1584 1490 1415 1585 1719 1662 1754 1712 1768 1855 1800 1928 2000 2042 2059 2126 2135 2130 2179 2114 2107 2065 2020 2074 1947 1794 1766 1709 1669 1653 1526 1565 1577 1367 1279 1280 1202 1198 1266 1160 922 778 625 528 540 555 551 654 690 670 618 547 572 686 622 668 867 775 666 364 28 16 23 144 219 186 188 219 264 184 182 207 62 66 71 34 73
1218 1251 1288 1311 1424 1704 1806 1642 1486 1289 1384 1538 1618 1488 1634 1585 1719 1823 1870 2018 2063 2031 2089 2117 2183 2192 2176 2163 2157 2152 2087 2072 1978 1874 1781 1735 1663 1640 1609 1497 1514 1390 1284 1325 1323 1226 1154 1026 1228 1018 772 743 685 583 582 576 592 586 675 664 648 809 726 944 909 825 851 727 45 250 315 397 363 325 274 336 487 561 435 320 197 102 25 7 1
1200 1209 1253 1268 1303 1498 1709 1558 1317 1159 1318 1547 1461 1557 1624 1614 1734 1787 1881 2017 2052 2057 2155 2202 2189 2214 2191 2110 2128 2121 2075 2063 1983 1914 1737 1614 1598 1655 1631 1551 1524 1343 1120 1064 1011 970 1044 948 899 902 873 1020 920 786 788 726 713 669 828 890 863 1081 1144 1340 1441 1378 1372 636 168 329 511 592 606 603 898 1044 707 572 554 517 456 146 70 12 7
1710 1491 1442 1236 1259 1430 1616 1527 1324 1124 1244 1421 1491 1535 1552 1560 1649 1822 1888 1999 2037 2076 2092 2233 2176 2182 2154 2127 2134 2058 2061 2008 1968 1921 1756 1732 1643 1576 1670 1590 1440 1306 1091 1022 1150 1172 904 990 997 890 934 970 758 1020 808 1013 985 1041 1089 1145 1229 1278 1453 1332 751 1090 919 169 204 497 621 989 734 788 969 766 498 340 202 148 491 171 100 25 8
1844 1811 1700 1272 1222 1644 1532 1501 1386 1228 1366 1379 1457 1488 1511 1400 1602 1822 1869 1934 2086 2060 2154 2183 2250 2186 2177 2156 2123 2127 2080 2012 1935 1780 1700 1660 1629 1583 1640 1434 1198 1120 1171 1142 1066 931 1110 1163 1191 1171 1180 1107 1086 1102 1057 1031 1219 1219 1251 1345 1275 1404 1470 943 439 522 649 106 386 611 1202 975 656 585 738 737 591 374 301 215 132 123 154 65 13
1882 1742 1424 1233 1541 1539 1572 1481 1333 1330 1271 1318 1365 1436 1378 1480 1696 1793 1974 2033 2120 2181 2208 2204 2207 2151 2108 2151 2131 2066 1974 1957 1953 1842 1803 1642 1617 1665 1448 1195 1160 1378 1438 1096 1019 1157 1321 1177 1134 1287 1251 1188 1144 1174 1136 1152 1328 1281 1340 1269 1419 1495 1201 984 409 563 275 202 460 614 865 614 526 608 581 484 490 317 199 172 136 44 22 11 22
1842 1532 1190 1203 1277 1561 1533 1405 1223 1271 1197 1277 1325 1473 1626 1554 1757 1888 2016 2203 2166 2138 2172 2178 2157 2169 2103 2072 2062 1991 1877 1902 1846 1782 1784 1676 1643 1544 1477 1591 1572 1340 911 869 1096 1234 1335 1268 1191 1355 1424 1446 1423 1427 1358 1313 1285 1485 1388 1363 1475 1523 1307 1134 357 271 252 291 654 738 555 454 471 790 531 452 319 231 137 132 95 67 29 38 42
1635 1440 1348 959 1178 1405 1499 1387 1336 1218 1218 1306 1460 1563 1695 1832 1958 2023 2186 2224 2106 2162 2180 2150 2167 2113 2091 2044 1956 1885 1810 1782 1708 1552 1257 1453 1444 1424 1502 1370 1287 1038 895 906 1117 1324 1397 1328 1258 1259 1328 1495 1442 1408 1564 1313 1468 1588 1466 1476 1472 1486 1557 1006 668 341 432 565 666 483 384 407 473 741 511 420 248 179 128 87 65 54 38 26 22
1581 1534 1373 937 1128 1236 1263 1368 1368 1248 1429 1576 1658 1786 1899 2064 2133 2177 2164 2112 2116 2150 2148 2061 2078 2039 1956 1899 1870 1802 1681 1549 1403 1283 1226 1101 976 815 876 692 943 1024 1050 1089 1108 1182 1330 1404 1286 1300 1394 1440 1286 1551 1308 1556 1630 1642 1547 1572 1629 1676 1909 842 486 496 554 606 444 531 317 377 551 615 531 432 296 191 109 83 66 50 34 18 0
1684 1664 1361 957 851 934 1069 1094 1266 1477 1532 1586 1693 1784 1966 2162 2136 2106 2176 2133 2168 2144 2100 2068 2022 1947 1941 1844 1754 1700 1580 1505 1378 1275 1185 1086 964 854 730 803 853 849 1024 1096 1011 1063 1182 1359 1397 1418 1356 1307 1621 1495 1439 1751 1692 1700 1760 1572 1778 1831 2077 1200 401 577 601 464 308 353 302 371 796 553 576 499 347 187 114 96 66 42 25 12 10
1530 1089 950 707 637 782 865 1054 1336 1521 1529 1448 1543 1814 2117 2150 2126 2107 2096 2129 2140 2100 2048 2038 1958 1912 1845 1760 1667 1522 1448 1340 1237 1103 1006 972 848 823 831 809 826 843 929 954 912 1019 1100 1124 1273 1408 1358 1429 1392 1514 1547 1645 1711 1816 1615 1497 1837 1946 1715 945 328 299 508 436 335 272 253 310 656 621 698 445 312 215 180 118 84 55 39 15 1
724 552 555 619 624 740 930 1072 1205 1307 1539 1792 2068 1851 2223 2198 2174 2131 2161 2114 2066 2077 2040 1996 1926 1869 1840 1710 1524 1420 1265 1124 1004 902 803 740 701 653 690 729 735 813 791 643 820 920 876 1051 1254 1230 1492 1437 1288 1489 1623 1754 1815 1813 1909 1809 1906 1981 1197 793 380 270 302 473 354 295 136 356 720 730 732 517 458 312 204 226 164 72 31 10 0
531 536 565 543 625 741 885 1058 1304 1522 1730 1809 1964 2151 2078 2169 2111 2180 2112 2117 2081 2044 2023 1947 1890 1764 1825 1659 1461 1330 1267 1067 908 782 621 523 529 541 524 608 620 741 639 682 632 820 843 778 1079 765 1354 1011 1422 1636 1610 1689 1708 1871 2138 2101 1828 1796 820 354 493 297 294 453 434 199 168 349 773 805 814 509 442 415 385 264 173 98 52 15 0
603 540 506 550 634 752 943 1081 1265 1538 1674 1792 1894 1871 2102 2203 2104 2209 2169 2072 2061 2055 1961 1874 1938 1770 1786 1545 1446 1412 1302 1138 1038 838 790 728 548 372 520 519 590 654 637 625 682 673 732 817 813 856 985 1178 1348 1516 1312 1038 1565 1691 2110 2323 2395 1646 207 310 404 479 179 372 387 96 165 473 877 844 954 642 551 585 439 288 164 108 70 25 2
641 494 494 557 753 901 920 938 1196 1506 1701 1793 1870 1940 2128 2150 2082 2168 2099 2079 1974 1842 1890 1825 1734 1764 1565 1593 1467 1226 1180 1041 941 837 1006 823 698 589 453 523 590 601 656 632 696 678 688 770 865 961 1118 1093 1272 1348 817 723 859 1227 1774 2288 2156 753 204 18 292 406 496 78 400 191 246 652 835 936 1065 750 665 806 481 206 182 102 73 37 18
934 930 775 698 873 889 841 885 1102 1422 1688 1746 1787 1902 2022 1991 1951 1962 1895 1910 1896 1905 1682 1717 1400 1429 1508 1397 1210 1256 1058 953 844 1182 1155 1062 975 914 586 502 514 607 687 716 786 761 789 916 1070 1214 1254 1298 1005 4 8 82 299 990 1448 1585 709 434 10 2 7 290 463 449 282 126 324 760 895 1049 1102 749 884 944 588 239 228 120 75 45 24
942 810 625 756 824 807 761 805 1031 1315 1661 1756 1796 1851 1862 1793 1838 1849 1814 1948 2014 1977 1675 1589 1396 1350 1312 1304 1138 1078 924 863 816 1206 1250 1370 978 1195 989 704 551 642 651 664 819 785 887 958 1014 1013 896 547 0 0 0 0 0 428 613 795 772 750 787 714 210 244 474 655 578 409 426 796 1012 1186 1259 1023 1047 1018 679 295 140 83 127 78 39
1047 819 555 722 698 620 582 706 1024 1280 1608 1733 1807 1725 1650 1656 1694 1710 1724 1817 1788 1544 1598 1404 1358 1400 1295 1194 987 1011 935 932 1530 1797 2108 1385 1066 1267 1087 1104 1008 1049 935 828 641 567 719 470 402 512 23 0 0 0 0 0 77 207 0 4 59 184 361 535 688 662 560 599 668 546 535 877 1204 1359 1480 1277 1080 1136 817 478 365 195 196 124 60
998 738 548 653 603 559 570 630 984 1305 1522 1646 1718 1592 1535 1522 1549 1566 1633 1634 1618 1473 1457 1378 1348 1405 1312 1051 915 1067 1025 1028 1209 1501 1702 955 682 913 936 854 877 730 679 447 374 333 59 0 0 0 0 0 0 0 0 0 0 0 0 0 1 40 139 309 499 710 795 649 670 528 632 1170 1459 1524 1601 1515 1225 1231 1028 649 464 274 280 265 180
783 607 498 590 578 536 546 650 945 1198 1438 1524 1510 1619 1598 1425 1460 1534 1586 1544 1489 1348 1395 1361 1280 1307 1311 1026 1025 1273 1190 1037 1212 1409 1618 1182 660 762 759 701 686 713 705 311 141 557 631 616 563 294 0 0 0 415 529 631 518 447 213 0 0 35 76 68 329 433 636 839 813 616 811 1436 1721 1683 1696 1647 1391 1345 1305 864 309 575 345 340 289
738 554 476 581 610 603 637 752 868 1004 1261 1404 1338 1500 1484 1365 1413 1447 1470 1440 1379 1248 1394 1351 1168 1148 1128 1163 1198 1357 1485 1188 1133 1269 1480 1368 985 814 876 823 933 906 912 908 844 782 691 666 729 715 750 710 697 755 815 840 675 628 562 176 3 71 84 75 163 485 661 741 488 536 1059 1510 1886 1823 1743 1736 1730 1529 1547 1273 807 736 727 399 409
662 388 494 543 642 694 770 789 744 878 1055 1270 1257 1400 1291 1294 1314 1584 1380 1370 1283 1228 1410 1402 1165 957 1020 1095 1267 1389 1525 1476 1415 1322 1397 1322 1009 959 829 1035 1557 1588 1484 1182 1065 975 952 817 779 791 860 854 909 984 1022 995 758 686 741 517 460 562 422 79 106 358 400 307 307 401 1062 1683 1817 1736 1844 1882 1992 1878 1665 1662 1291 1046 1003 815 486
443 466 484 523 558 627 744 732 696 864 969 1200 1187 1282 1267 1323 1416 1547 1418 1641 1478 1204 1293 1504 1398 1180 1067 1094 1181 1234 1377 1402 1300 1176 1150 1076 1103 956 1640 1854 1602 1476 1609 1436 1155 1141 1184 986 888 908 945 1003 998 967 975 900 689 619 727 757 783 759 632 463 109 0 1 0 0 134 1075 1985 1837 1669 1826 1942 2006 2098 1800 1306 1178 1037 911 738 774
442 442 488 534 537 547 659 707 709 814 976 1272 1270 1314 1302 1252 1319 1426 1421 1672 1623 1244 1257 1498 1617 1622 1518 1456 1346 1205 1155 1172 1038 855 933 993 1050 1173 1441 1575 1332 1182 1285 1406 1274 1152 1225 995 923 996 989 957 879 849 970 824 764 669 660 823 873 825 673 589 487 415 357 314 306 320 752 1612 1928 1670 1591 1871 2075 2210 1891 1325 1149 1206 985 825 767
442 453 509 522 563 545 600 736 736 822 917 1233 1246 1226 1115 1095 1143 1350 1369 1510 1716 1424 1370 1583 1633 1602 1363 1056 962 927 940 899 956 1184 1288 1241 1031 928 873 814 799 1016 1150 1046 1133 1205 1206 1080 933 941 946 848 881 896 855 789 691 705 675 709 848 860 793 710 638 546 478 452 420 382 345 1116 1700 2014 1883 1568 1665 1972 2162 1873 1646 1234 1141 1042 885
480 507 530 539 605 554 572 726 777 786 824 977 1028 901 1020 1041 1134 1364 1424 1436 1688 1522 1539 1573 1471 1337 1269 1283 1290 1322 1306 1250 1386 1408 1205 872 842 761 770 734 930 1166 1443 1401 1403 1306 1102 854 814 911 872 896 876 884 862 821 778 714 680 689 662 724 768 862 828 756 716 684 670 632 571 539 1149 1988 2168 1797 1498 1576 1732 1612 1573 1141 906 1077 1012
765 580 589 649 658 530 564 643 684 756 666 738 786 849 974 1086 1201 1410 1489 1464 1559 1562 1360 1156 1210 1317 1348 1357 1361 1310 1293 1298 1244 1165 947 892 852 825 896 1066 1151 1231 1338 1334 1261 1133 1078 1048 994 923 855 857 866 878 862 808 767 718 675 684 687 735 707 770 872 888 895 902 901 891 852 816 801 836 1076 1665 1686 1457 1496 1633 1639 1227 772 903 782
839 737 778 777 704 671 611 589 579 609 530 586 729 941 1105 1143 1260 1396 1463 1464 1426 1318 964 1122 1226 1245 1249 1214 1233 1259 1212 1103 1122 972 888 943 845 802 958 1080 1122 1304 1343 1290 1188 1093 930 926 907 845 959 860 823 808 771 741 724 689 661 634 632 610 575 539 622 721 826 900 950 1020 1066 1045 1003 958 929 944 1198 1410 1540 1466 1590 1753 1639 841 698
1038 910 893 790 773 722 552 488 553 488 419 558 799 971 940 951 1084 1276 1272 1266 1161 971 967 1042 1092 1157 1169 1097 1099 1072 1002 1042 1011 1100 1101 1018 836 816 997 1128 1293 1324 1344 1318 1281 1027 934 908 889 776 744 786 727 650 629 647 661 690 674 594 508 409 413 417 470 493 556 689 862 1060 1184 1216 1154 1082 1128 1115 1054 1007 991 1243 1630 1749 1766 1734 1185
1123 1095 901 646 702 667 585 461 450 367 388 624 752 720 663 766 970 1001 854 957 951 884 974 972 992 1040 1101 1082 1057 1024 1052 1040 1015 977 1101 1098 880 864 885 1174 1352 1393 1317 1330 1156 1072 912 857 835 706 663 614 542 462 470 494 539 572 527 554 464 350 320 308 336 424 554 720 876 1050 1164 1163 1127 1190 1218 1213 1200 1222 1213 1156 1040 937 1196 1367 1540
1214 1043 892 702 694 691 626 433 402 393 442 556 611 644 671 771 884 753 778 818 840 879 943 980 1029 1041 1080 1050 1014 997 1028 1028 919 822 951 951 838 951 905 1094 1221 1301 1115 1112 910 901 892 778 751 538 521 481 422 361 365 414 444 482 520 448 302 279 248 376 472 535 604 626 616 652 736 890 1006 1082 1154 1203 1216 1169 1177 1207 1199 1137 1083 991 969
1200 978 868 787 732 723 650 515 454 481 579 615 640 644 688 762 810 790 816 822 841 889 958 1010 1046 1008 999 1000 1042 1064 1079 1028 972 966 912 824 895 1045 1053 988 1037 1025 974 857 746 657 668 613 383 363 342 300 277 286 317 352 381 392 347 245 249 224 383 275 290 418 517 453 423 512 531 553 593 611 648 670 722 792 778 758 751 744 753 771 758
1198 1068 909 828 788 760 692 558 511 587 663 681 671 668 702 747 844 881 879 861 874 905 977 1004 1002 935 948 1008 1091 1034 853 733 797 670 751 804 830 934 1006 997 902 893 806 673 543 432 358 325 288 290 262 246 247 279 301 334 350 337 290 200 189 366 265 180 202 343 457 337 262 366 399 365 420 473 481 540 568 583 484 426 405 467 477 474 648
1181 1058 933 954 908 823 709 613 573 664 729 704 703 720 739 782 819 861 891 925 968 971 995 998 861 882 942 958 872 773 666 628 653 665 736 796 838 780 709 725 762 715 640 537 438 368 333 330 287 253 242 236 234 238 234 244 215 60 52 0 132 533 346 0 108 300 327 265 194 221 293 362 443 449 477 443 450 479 459 382 332 328 342 357 365
1034 892 782 725 756 808 725 637 627 696 721 734 747 736 753 746 764 766 769 804 925 985 993 921 819 805 851 820 752 697 658 670 739 749 740 776 784 751 706 638 629 569 476 352 282 285 258 244 238 244 237 228 213 191 186 0 0 0 0 0 0 563 601 465 266 284 360 277 210 204 217 308 345 385 401 372 352 346 363 337 325 312 313 307 282
867 733 637 538 598 630 657 660 614 705 731 742 754 751 758 765 782 781 742 814 912 995 970 859 836 800 759 677 630 649 668 651 668 678 674 685 679 649 594 560 496 467 392 309 268 262 242 221 210 201 200 176 192 0 0 0 0 0 0 0 0 98 634 699 526 284 261 220 223 240 236 211 231 232 267 284 312 290 294 322 325 312 318 300 271
895 664 630 628 640 638 651 658 628 642 709 733 748 766 761 777 832 849 826 843 911 940 906 818 784 795 739 622 585 606 628 623 603 609 612 587 560 534 503 456 399 333 309 319 250 253 187 0 0 0 50 0 0 0 0 0 0 0 0 0 0 0 159 350 283 408 189 146 0 162 237 217 101 0 0 123 215 235 223 295 338 341 317 293 279
703 707 699 707 708 695 692 682 681 672 672 720 760 785 800 826 859 919 866 825 900 859 848 845 771 762 723 607 532 510 526 490 489 493 523 476 442 472 427 381 380 330 286 287 256 255 0 0 0 0 9 0 0 0 0 0 0 0 0 0 64 0 1 0 0 12 24 0 0 10 57 179 0 0 0 0 0 0 0 0 15 51 220 215 15
632 746 768 773 770 780 752 723 726 727 712 729 785 814 826 855 881 850 832 848 812 798 805 741 668 673 626 534 460 438 484 481 468 459 488 471 430 409 376 321 271 268 242 222 213 144 0 0 0 0 0 0 0 0 0 0 0 0 0 0 0 0 1 0 0 0 0 0 0 0 0 0 0 0 0 0 0 0 0 0 0 0 0 0 0
674 770 818 819 825 809 793 763 755 810 787 781 808 878 920 913 919 842 814 768 792 773 699 658 559 556 546 476 412 382 398 445 415 407 425 420 380 336 298 268 238 206 57 0 0 0 0 0 0 0 0 0 0 0 0 0 0 0 0 0 3 1 0 0 0 0 0 0 0 0 0 0 0 0 0 0 0 0 0 0 0 1 0 0 0
669 784 876 897 864 810 761 786 814 842 888 894 906 938 1034 1023 954 932 813 771 743 695 616 535 478 499 476 432 424 364 342 336 393 413 389 370 318 267 226 213 84 0 0 0 0 0 0 0 0 0 0 0 0 0 0 0 0 0 0 0 0 0 0 0 0 0 0 0 0 0 0 0 0 0 0 0 0 0 0 0 0 1 0 0 0
687 756 854 914 918 842 749 704 764 726 812 902 829 963 1052 1007 984 963 850 804 679 601 586 533 480 482 496 450 380 352 373 445 447 447 399 321 260 91 0 0 0 0 0 0 0 0 0 0 0 0 0 0 0 0 0 0 0 0 0 0 0 0 0 0 0 0 2 0 0 0 0 0 0 0 0 0 0 0 0 0 0 0 0 0 0
741 818 808 883 901 866 745 721 643 689 908 895 846 958 964 899 956 946 911 827 688 550 534 470 424 439 441 382 388 458 502 496 471 362 272 247 150 0 0 0 0 0 0 0 0 0 0 0 0 0 0 0 0 0 0 0 0 0 0 0 0 0 0 0 0 0 0 0 0 0 0 0 0 0 0 0 0 0 0 0 0 0 0 0 0
722 771 834 898 923 891 820 775 821 680 593 734 845 824 765 858 926 981 912 790 718 510 458 410 378 378 414 476 523 579 526 482 381 294 278 226 0 0 0 0 0 0 0 0 0 0 0 0 0 0 0 0 0 0 0 0 0 0 0 0 0 0 0 0 0 0 0 0 0 0 0 0 0 0 0 0 0 0 0 0 0 0 0 0 0
764 901 996 910 826 850 877 824 858 834 729 786 846 752 767 837 952 911 861 733 658 506 398 374 364 320 354 407 464 517 484 376 325 334 276 13 0 0 0 0 0 0 0 0 0 0 0 0 0 0 0 0 0 0 0 0 0 0 0 0 0 0 0 0 0 0 0 0 0 0 0 0 0 0 0 0 0 0 0 0 0 0 0 0 0
Wind_Speed
31 35 33 39 42 43 42 43 44 43 40 38 35 32 30 31 32 32 31 30 28 26 24 24 25 25 26 26 27 29 28 28 26 25 23 20 18 16 14 13 13 14 14 14 14 13 12 10 8 7 7 7 8 8 7 7 8 9 9 9 9 8 8 8 8 8 8 8 8 9 9 10 10 11 11 12 12 12 12 13 10 4 nan nan 12
37 34 34 37 43 42 42 42 43 43 41 38 34 31 31 31 32 32 31 31 29 26 25 25 25 26 26 26 27 28 28 28 26 24 22 21 19 17 15 13 13 14 15 15 13 12 10 8 6 6 6 7 8 8 7 7 7 8 9 9 10 9 8 8 8 8 9 9 10 10 10 11 11 11 12 12 12 13 12 13 13 6 5 nan 12
37 35 33 38 45 44 42 41 42 43 40 37 34 31 30 30 31 31 31 31 29 27 25 25 25 26 26 26 26 27 28 27 26 24 23 21 20 18 16 14 14 15 16 15 14 12 10 8 7 5 4 5 7 7 7 7 8 8 8 9 9 8 8 8 9 9 9 10 10 10 10 11 12 12 12 12 13 12 13 13 13 12 9 12 12
40 34 33 40 47 42 40 40 41 43 39 36 34 31 30 29 30 30 31 30 28 27 26 25 24 25 25 25 26 26 26 26 25 24 23 22 21 20 18 16 15 16 16 16 13 11 9 8 6 5 4 5 6 6 6 7 8 8 8 8 8 8 7 8 9 10 10 10 10 8 3 3 8 12 11 12 14 13 14 nan 14 nan nan nan nan
37 34 33 36 37 39 40 40 39 41 39 36 34 32 30 29 29 30 30 29 28 27 26 25 24 25 24 24 25 25 25 25 23 22 22 22 21 21 19 17 16 16 16 15 13 11 9 8 6 5 4 5 6 6 6 6 8 7 7 8 8 9 9 9 10 10 10 10 9 6 4 5 6 11 11 13 14 14 nan nan nan nan nan 15 nan
37 33 32 34 34 36 39 38 39 41 39 37 34 32 30 29 30 30 30 28 27 26 25 24 24 24 24 25 25 25 24 23 21 20 21 21 20 21 20 18 16 14 14 14 13 11 9 7 6 5 5 6 6 7 6 6 7 7 7 7 6 7 6 7 6 5 8 9 8 nan 4 5 6 8 13 13 14 15 15 nan nan nan nan 16 nan
38 33 33 33 32 34 37 37 39 40 39 37 35 32 30 29 30 30 29 28 26 25 24 24 23 23 23 25 25 25 23 21 19 19 20 20 19 18 18 17 15 14 12 11 11 10 10 8 6 5 5 6 7 7 6 6 6 6 5 5 5 3 2 1 2 1 7 7 nan nan nan 4 6 7 12 14 15 16 17 17 nan nan nan nan nan
32 32 33 33 32 36 37 38 39 40 40 38 36 33 30 29 30 29 29 27 25 24 23 23 23 23 24 24 25 25 23 22 20 20 20 20 21 20 18 16 14 13 11 9 9 9 8 7 6 6 6 7 8 8 7 7 6 6 5 4 3 2 0 2 3 3 5 7 nan 5 5 5 7 8 14 15 16 18 19 18 16 15 nan nan nan
32 33 33 31 32 39 36 38 38 40 40 38 36 33 30 29 29 29 29 27 25 24 23 23 24 23 23 25 26 25 24 22 21 21 21 21 21 20 17 15 14 12 10 9 8 7 7 6 5 5 6 7 8 8 8 8 7 6 4 3 2 1 1 2 4 5 6 7 7 7 6 7 7 7 14 17 17 18 19 18 16 16 nan nan nan
34 34 32 30 32 39 38 37 37 40 40 39 37 33 31 29 30 29 29 28 26 24 23 23 24 24 24 25 26 26 25 24 22 21 21 21 20 19 17 16 14 12 11 10 9 8 8 7 6 5 5 6 7 7 8 7 7 5 4 2 1 1 2 3 4 9 9 9 8 9 9 12 9 9 13 16 16 17 17 18 17 17 16 nan nan
36 35 33 32 34 37 37 37 37 39 41 40 37 35 32 30 30 29 28 28 26 24 24 24 24 24 24 26 26 26 26 25 23 22 21 20 19 18 17 15 13 12 11 10 9 9 8 8 7 6 6 6 6 7 7 7 6 5 4 3 2 3 4 6 7 8 10 10 9 9 12 15 9 9 15 16 16 16 16 16 16 17 17 nan nan
38 35 33 33 39 37 36 36 38 39 41 40 38 36 32 31 30 29 28 27 25 24 24 24 23 25 25 26 26 27 27 25 23 22 21 20 19 18 17 15 13 12 11 10 9 9 9 8 7 6 6 7 6 6 6 6 5 5 5 4 4 5 7 7 7 8 9 10 10 9 11 11 10 11 15 15 15 15 15 15 16 nan nan nan nan
39 35 34 33 34 36 34 35 38 39 41 40 37 35 32 31 29 28 28 25 25 24 24 24 24 23 24 25 26 27 26 24 23 22 21 20 19 17 16 15 14 12 11 11 11 10 10 9 8 7 7 7 7 6 6 5 4 4 5 5 4 5 7 7 7 9 9 9 9 10 11 11 10 13 16 16 15 15 16 16 nan nan nan nan nan
39 36 35 34 33 37 34 33 35 39 40 38 37 33 31 29 27 27 26 24 24 24 23 24 23 23 24 25 25 25 24 22 22 22 21 20 19 17 15 14 13 13 12 12 12 11 9 9 8 7 7 6 6 5 5 4 4 4 5 6 5 5 7 5 9 11 10 11 11 11 12 11 9 15 17 18 17 16 15 nan nan nan nan nan nan
41 38 35 33 33 31 36 33 34 38 38 35 33 32 30 26 26 26 25 25 24 23 23 24 23 23 24 24 24 24 22 21 20 20 19 18 18 16 15 14 12 12 13 13 12 11 10 8 8 7 6 6 5 5 4 3 3 3 5 6 5 5 6 5 6 11 12 12 12 12 12 11 10 17 18 19 18 17 17 nan nan nan nan nan nan
38 38 33 32 31 30 29 33 36 38 38 36 33 33 31 28 26 26 24 23 22 21 22 23 22 23 22 23 23 22 21 20 20 20 19 18 17 16 15 13 12 11 12 12 11 10 9 8 7 6 6 5 4 4 4 4 4 4 6 7 6 5 5 7 6 10 11 11 11 11 11 10 14 17 18 19 19 19 18 nan nan nan nan nan nan
36 34 33 32 30 29 28 29 32 39 39 37 33 32 31 28 26 26 24 23 23 22 23 23 22 22 22 22 22 20 19 20 20 20 20 19 18 17 15 13 12 11 11 11 10 9 8 8 7 6 5 5 4 4 4 4 5 4 5 7 7 5 6 7 6 10 11 11 10 11 10 9 13 15 17 18 18 19 19 18 nan nan nan nan nan
34 33 32 31 31 30 30 29 31 32 32 34 34 34 31 29 26 25 23 22 22 22 22 22 22 22 22 21 21 19 18 19 19 20 20 19 18 16 15 13 11 10 9 9 9 9 8 8 7 7 6 5 4 3 2 3 3 3 2 5 6 6 7 6 7 8 11 11 11 10 10 10 11 15 16 17 17 17 17 17 17 nan nan nan nan
32 30 30 32 32 32 30 29 29 30 32 31 29 31 33 31 28 27 24 21 21 22 22 22 22 22 21 21 19 18 17 17 18 19 19 18 17 15 14 12 11 9 8 8 8 8 8 7 7 6 5 5 3 2 1 2 3 3 3 2 5 6 7 7 7 8 10 12 12 12 13 12 13 17 18 18 18 17 17 17 17 nan nan nan nan
30 28 28 28 30 29 27 27 28 30 31 30 29 28 31 31 30 28 25 22 21 21 22 22 22 21 21 19 18 15 15 14 17 17 18 18 16 14 13 11 10 9 8 7 7 7 7 7 7 6 4 3 2 1 2 3 3 3 3 1 3 8 9 9 9 9 13 13 14 nan 14 16 16 20 20 20 20 19 18 18 18 18 nan nan nan
29 26 24 25 25 25 26 26 27 29 30 30 29 28 28 31 29 28 26 23 21 22 21 22 21 20 19 18 17 12 11 10 13 14 17 15 15 13 13 12 10 9 8 7 7 7 6 6 5 4 3 2 1 2 3 3 4 2 2 2 2 10 11 nan 10 12 14 nan 13 14 17 18 20 21 21 21 21 21 21 20 20 20 nan nan nan
30 26 21 22 23 24 25 26 27 27 28 28 26 25 26 29 26 24 21 20 20 20 19 18 19 17 19 17 15 12 10 10 11 14 14 14 14 13 11 10 9 8 8 6 5 5 4 3 3 4 3 3 4 nan nan nan 2 2 1 1 4 9 nan nan nan 11 13 13 13 14 17 19 20 21 21 21 22 23 23 23 23 22 nan nan nan
29 24 22 22 22 24 25 26 26 25 26 26 24 25 27 27 26 24 21 21 19 19 18 18 18 17 17 16 14 12 10 10 11 11 14 15 13 13 11 11 10 8 8 6 5 4 3 3 4 4 5 5 nan nan nan nan nan 1 3 4 4 4 9 12 12 11 11 12 13 15 17 18 20 20 21 21 22 22 24 24 24 nan 22 nan nan
29 25 24 22 23 24 25 26 26 25 25 24 23 25 25 26 25 23 22 21 20 19 18 18 18 18 17 16 14 12 11 10 9 9 11 12 12 10 11 11 9 9 7 8 6 5 3 3 3 3 nan nan nan nan nan nan nan 4 nan nan nan 4 3 9 13 13 12 12 13 16 17 17 19 19 20 20 21 21 22 23 23 23 23 23 nan
29 27 25 25 25 26 27 25 25 25 25 24 24 24 24 24 22 21 21 20 19 19 19 18 19 18 17 15 14 12 12 10 9 9 11 12 12 11 11 11 10 8 8 7 7 6 nan nan nan nan nan nan nan nan nan nan nan nan nan nan nan nan 5 5 11 13 14 13 11 16 18 18 18 19 19 19 20 21 22 22 22 23 24 23 23
29 26 25 26 27 28 27 25 25 25 25 24 25 24 23 21 19 20 20 18 18 18 18 19 19 18 16 14 13 12 12 10 10 9 11 12 12 11 11 11 10 9 9 7 6 5 5 6 6 5 nan nan nan 6 7 8 6 5 6 nan nan nan nan nan 9 12 14 14 14 17 18 18 18 18 18 18 18 20 21 21 21 22 24 24 23
26 22 23 24 27 30 29 27 28 30 30 27 25 22 20 18 18 18 17 16 17 18 18 19 19 17 16 15 13 12 12 12 11 11 11 12 11 10 10 11 9 7 8 8 6 6 7 7 7 8 8 8 8 8 8 9 10 9 8 8 nan nan nan nan 10 11 12 14 15 18 19 19 19 19 19 18 19 20 22 22 21 21 22 24 24
21 19 21 22 26 29 30 30 31 34 34 30 26 23 21 19 17 17 15 15 17 17 18 19 19 17 16 15 13 13 13 13 12 12 12 13 11 9 9 9 8 7 7 8 7 7 7 8 8 8 8 9 9 8 9 9 10 11 10 8 9 10 11 nan 11 11 11 14 17 19 21 21 21 20 21 21 21 21 22 23 22 20 20 22 23
17 24 26 23 26 28 29 32 32 33 31 29 27 25 23 18 16 16 16 16 17 17 18 18 17 16 16 16 14 13 13 13 13 12 14 13 11 10 9 7 7 5 5 6 7 5 5 7 8 8 8 8 8 8 9 10 11 13 13 11 10 10 10 11 13 nan nan nan nan 16 19 22 22 22 24 24 22 22 21 20 15 13 12 11 17
28 33 31 25 25 26 27 29 25 23 24 23 22 21 19 16 16 17 18 17 17 17 18 18 17 17 16 16 15 15 15 15 14 15 15 14 13 11 11 9 7 5 5 4 5 5 5 5 5 6 7 7 7 8 9 10 12 13 13 13 13 12 11 12 13 13 13 15 16 16 17 19 21 22 21 21 21 21 19 20 21 17 11 11 9
34 30 26 24 24 24 23 22 22 24 24 20 19 18 16 14 15 18 20 18 19 20 19 19 19 17 16 16 16 16 17 16 16 15 15 14 13 12 12 11 9 6 5 5 5 6 6 7 7 8 8 9 9 10 10 9 9 10 12 11 10 11 12 14 15 14 14 14 15 16 16 16 17 18 19 18 18 18 17 18 18 21 21 15 13
29 24 21 23 22 22 23 23 25 28 26 21 21 21 17 13 16 20 20 21 21 21 20 20 20 18 17 17 17 16 16 16 16 16 16 14 13 14 12 12 10 7 7 7 7 6 7 7 7 7 7 8 7 8 10 10 8 9 11 11 11 10 10 10 13 15 15 15 15 15 16 16 14 15 16 16 16 16 16 15 15 16 17 17 17
21 22 23 24 21 22 22 23 24 25 24 22 21 22 21 17 16 18 22 23 23 22 21 20 20 18 18 18 18 17 16 17 17 18 17 15 15 14 13 12 11 8 8 8 9 8 8 8 7 8 10 10 10 10 11 12 11 10 11 12 13 13 12 12 12 13 14 15 16 16 16 17 17 15 13 13 14 14 13 11 12 14 18 19 19
22 20 23 23 21 21 20 20 21 22 23 21 19 21 23 20 17 19 23 24 23 23 22 21 21 20 18 18 18 18 18 19 20 19 18 18 16 15 15 14 12 11 11 11 13 11 11 11 9 10 10 11 11 12 13 13 11 12 13 13 14 14 14 14 14 14 15 14 15 16 17 18 18 18 18 15 13 12 11 12 11 11 12 14 15
19 20 21 22 20 19 20 20 18 20 21 20 19 19 19 20 20 21 23 23 23 23 22 22 21 20 20 19 19 19 20 20 20 20 19 19 17 16 17 16 15 14 15 14 15 14 14 13 11 11 11 12 12 14 15 15 14 13 13 14 14 14 15 15 17 17 17 17 18 18 18 19 19 19 19 19 17 13 12 11 10 9 10 11 12
17 17 20 20 18 16 17 19 20 20 20 20 21 21 21 21 22 23 23 24 23 22 22 21 20 20 20 20 20 20 20 21 21 20 21 20 18 18 18 17 17 16 17 16 16 15 13 14 12 12 13 12 13 13 15 15 15 14 14 14 14 16 15 16 18 18 18 19 20 20 19 19 19 20 20 20 20 18 14 13 11 10 9 9 10
18 18 20 21 19 18 17 18 20 22 22 23 24 25 24 23 22 23 24 24 23 22 21 20 20 20 19 20 21 19 18 20 21 20 21 20 19 20 19 18 18 18 17 16 16 14 14 13 13 12 13 14 14 14 15 16 14 14 14 15 15 17 17 17 19 19 20 22 22 22 21 21 22 21 22 22 21 21 19 15 13 12 11 10 10
20 20 20 21 20 19 18 19 21 23 23 24 23 23 23 23 22 22 24 24 23 21 21 20 20 19 19 19 19 20 19 19 21 21 22 22 21 21 21 19 18 18 18 16 15 14 14 14 14 13 14 16 16 16 16 15 15 14 14 15 16 19 19 20 21 23 25 25 25 25 24 25 25 24 24 24 24 23 23 19 17 15 14 13 13
21 22 22 22 21 19 19 21 22 21 21 22 22 23 23 24 24 24 25 25 23 21 20 20 19 19 19 18 19 21 20 20 21 22 23 23 23 22 22 20 19 19 19 17 16 14 15 14 14 14 15 18 18 18 17 16 16 17 17 17 19 21 21 24 26 27 28 28 28 27 28 28 28 28 27 27 27 26 25 24 23 22 20 16 15
23 23 24 23 22 22 21 22 21 21 20 21 21 22 23 24 26 25 26 24 22 21 20 20 19 20 19 20 20 21 20 20 21 22 24 24 23 22 22 21 20 20 20 19 16 15 15 14 14 13 15 17 19 19 20 19 18 nan nan nan 21 23 25 nan 28 29 29 29 29 29 29 28 29 29 29 28 28 28 27 26 24 23 22 21 21
23 24 25 24 23 23 22 21 20 20 21 21 21 23 24 24 23 24 25 22 21 21 21 19 21 20 21 22 22 21 21 22 23 24 24 23 22 21 22 21 19 20 20 17 16 17 16 14 13 13 17 21 21 20 20 nan nan nan nan nan nan 24 26 27 30 29 29 29 29 30 28 29 29 29 28 29 29 29 28 27 26 25 25 25 26
22 24 25 25 25 24 22 21 20 20 20 21 22 22 23 23 24 24 25 22 21 21 20 20 21 22 22 23 22 22 22 22 22 22 22 21 22 22 21 20 19 20 18 17 19 19 17 16 13 16 17 23 24 nan nan nan nan nan nan nan nan nan 26 27 31 29 28 29 30 31 29 30 29 28 28 29 30 30 29 28 28 29 29 29 28
23 23 24 25 25 24 22 21 21 22 21 21 22 23 23 25 25 25 24 23 22 20 21 21 23 25 24 23 22 21 21 20 19 20 20 21 21 21 20 20 19 18 20 21 20 20 17 nan nan nan nan nan nan nan nan nan nan nan nan nan nan nan 23 25 26 29 27 29 nan 31 30 30 30 nan nan 30 31 31 30 30 31 32 32 31 30
21 22 23 24 23 22 21 20 21 21 22 22 22 24 27 28 27 26 24 22 20 21 23 22 23 24 23 21 21 21 21 21 20 20 20 21 21 21 20 21 20 20 21 21 21 19 nan nan nan nan nan nan nan nan nan nan nan nan nan nan nan nan nan nan nan nan nan nan nan nan nan 30 nan nan nan nan nan nan nan nan nan nan 34 33 nan
21 22 22 22 21 21 20 20 19 20 21 22 24 26 28 27 25 24 22 23 22 21 22 21 20 21 21 21 20 21 22 22 21 21 21 21 21 21 22 22 22 21 21 22 21 19 nan nan nan nan nan nan nan nan nan nan nan nan nan nan nan nan nan nan nan nan nan nan nan nan nan nan nan nan nan nan nan nan nan nan nan nan nan nan nan
21 21 21 21 21 20 20 20 20 21 23 24 25 26 26 25 22 20 19 20 21 19 19 19 19 20 19 16 20 21 22 23 22 22 21 21 23 23 22 22 21 21 nan nan nan nan nan nan nan nan nan nan nan nan nan nan nan nan nan nan nan nan nan nan nan nan nan nan nan nan nan nan nan nan nan nan nan nan nan nan nan nan nan nan nan
21 22 22 21 21 20 19 19 20 22 24 24 23 23 24 21 21 20 20 21 20 17 17 18 19 18 17 18 18 19 21 22 22 21 22 23 23 23 22 21 nan nan nan nan nan nan nan nan nan nan nan nan nan nan nan nan nan nan nan nan nan nan nan nan nan nan nan nan nan nan nan nan nan nan nan nan nan nan nan nan nan nan nan nan nan
23 23 21 20 21 21 20 19 21 22 23 21 21 22 19 18 20 20 19 19 18 16 16 18 18 17 18 19 17 18 19 19 20 21 22 22 22 nan nan nan nan nan nan nan nan nan nan nan nan nan nan nan nan nan nan nan nan nan nan nan nan nan nan nan nan nan nan nan nan nan nan nan nan nan nan nan nan nan nan nan nan nan nan nan nan
23 22 20 18 19 20 21 22 24 25 23 21 18 19 19 17 17 17 18 17 17 15 15 16 16 16 19 18 18 17 17 18 20 21 21 22 23 nan nan nan nan nan nan nan nan nan nan nan nan nan nan nan nan nan nan nan nan nan nan nan nan nan nan nan nan nan nan nan nan nan nan nan nan nan nan nan nan nan nan nan nan nan nan nan nan
22 22 19 18 18 19 21 25 25 23 21 21 19 18 17 16 16 15 18 15 13 14 15 16 16 16 18 18 17 16 16 18 20 21 22 22 nan nan nan nan nan nan nan nan nan nan nan nan nan nan nan nan nan nan nan nan nan nan nan nan nan nan nan nan nan nan nan nan nan nan nan nan nan nan nan nan nan nan nan nan nan nan nan nan nan
22 21 19 18 18 20 22 23 21 21 20 18 20 19 14 13 14 15 15 13 10 12 14 16 16 17 17 15 15 15 16 19 20 21 22 nan nan nan nan nan nan nan nan nan nan nan nan nan nan nan nan nan nan nan nan nan nan nan nan nan nan nan nan nan nan nan nan nan nan nan nan nan nan nan nan nan nan nan nan nan nan nan nan nan nan
Wind_Direction
325 324 327 330 327 329 330 331 330 328 328 325 323 320 319 321 321 320 318 317 317 317 318 320 322 323 325 327 328 329 329 327 325 324 324 322 317 312 311 314 319 324 328 331 333 335 340 343 338 323 317 308 292 284 285 300 321 325 322 320 312 297 284 267 264 259 256 258 263 264 267 269 270 269 273 275 272 271 272 275 276 289 nan nan 283
324 324 324 325 324 325 327 328 327 325 325 323 321 319 318 320 321 320 318 316 316 316 317 319 322 324 326 328 328 328 329 327 325 324 324 323 319 312 309 312 315 320 324 327 329 331 335 338 337 322 306 293 280 280 287 300 315 322 322 321 317 306 288 279 270 262 259 262 265 265 268 273 272 273 274 274 278 279 277 277 278 293 311 nan 283
315 318 320 321 322 323 324 324 323 322 322 321 319 317 317 319 321 320 317 315 315 315 317 319 322 323 326 327 327 327 329 329 326 326 327 326 322 315 309 310 314 318 323 325 325 328 335 343 348 341 311 279 276 281 286 293 307 313 317 320 319 309 294 278 267 259 259 262 266 267 272 280 281 280 282 282 281 280 282 285 283 281 290 276 278
314 316 316 319 321 320 319 320 319 319 319 318 317 316 316 318 319 319 317 314 314 314 315 318 321 324 326 327 326 326 328 330 328 329 330 328 324 319 314 313 315 319 322 325 325 325 327 332 336 334 314 289 275 272 276 288 297 303 311 316 325 320 299 287 279 272 270 271 265 257 266 270 284 280 284 289 288 287 291 nan 286 nan nan nan nan
309 314 314 314 315 316 317 317 316 316 317 315 315 315 313 316 317 317 316 314 313 313 315 317 320 324 326 324 323 324 329 330 331 331 330 331 329 325 320 318 317 320 323 325 328 327 327 328 332 326 310 291 278 272 279 290 302 307 312 319 322 321 313 302 289 275 278 278 272 258 270 281 282 284 288 289 288 288 nan nan nan nan nan 290 nan
307 309 308 308 310 314 314 314 315 314 314 313 314 313 312 314 315 315 314 313 311 312 314 316 319 323 323 321 320 323 327 330 332 332 333 332 333 329 324 320 318 319 324 327 331 332 329 326 320 315 300 293 286 283 286 291 297 305 312 318 317 316 313 328 329 247 289 290 280 nan 280 281 282 282 287 286 289 287 284 nan nan nan nan 280 nan
305 305 303 304 307 310 311 313 313 312 312 311 311 310 310 312 313 313 312 311 310 311 312 314 317 321 321 318 319 321 326 329 331 331 331 331 331 332 328 321 318 321 325 331 335 337 335 331 320 305 301 297 296 293 292 290 288 289 296 305 312 309 344 37 68 11 314 304 nan nan nan 284 283 286 285 286 284 285 285 284 nan nan nan nan nan
300 300 300 304 305 307 310 310 310 311 310 309 309 308 308 310 311 312 311 311 311 311 311 312 315 318 318 317 319 321 325 327 328 329 331 333 335 337 333 322 319 323 328 330 332 335 339 337 330 308 301 301 301 298 295 293 290 291 286 283 284 272 290 75 75 49 350 329 nan 331 315 305 290 290 299 294 289 285 285 288 290 288 nan nan nan
297 296 297 300 304 309 307 307 308 310 309 307 307 306 307 308 309 311 311 311 311 311 311 312 314 315 315 316 319 322 324 325 326 327 330 332 335 338 331 318 315 317 324 330 330 338 344 345 335 318 304 300 299 298 294 294 292 291 283 280 276 313 77 87 69 29 332 325 329 325 314 297 294 302 307 299 296 292 288 284 281 285 nan nan nan
293 293 295 298 302 307 306 305 308 309 308 306 305 306 307 308 309 311 312 311 312 311 310 310 311 312 313 315 320 323 324 326 326 325 327 329 331 330 328 323 319 323 328 333 334 336 342 341 338 329 311 301 299 297 296 291 290 287 283 271 230 175 169 202 280 319 314 319 320 317 311 302 306 313 314 309 305 300 296 294 295 294 294 nan nan
289 291 293 297 301 302 304 305 307 308 307 306 305 306 308 309 310 312 311 312 311 310 308 307 309 310 311 315 319 322 324 326 327 325 325 325 325 326 325 322 321 327 326 321 324 331 329 327 324 319 315 313 311 304 299 295 290 284 269 254 226 205 219 247 275 306 314 314 315 322 315 312 320 325 316 312 309 305 301 294 285 286 292 nan nan
288 289 291 296 300 299 302 305 308 307 306 306 306 308 309 311 312 312 311 311 310 308 306 304 306 308 311 314 318 321 324 326 326 326 325 325 324 324 325 321 314 303 303 307 315 319 317 315 311 305 307 311 309 305 301 298 291 281 271 256 237 230 237 254 290 301 313 314 316 320 306 311 327 327 315 313 311 311 308 300 294 nan nan nan nan
287 288 290 291 292 298 301 304 307 306 305 306 307 308 309 311 312 311 309 307 307 306 303 302 304 307 310 314 317 321 324 327 328 328 328 328 327 324 319 312 303 303 303 308 311 311 311 307 303 296 292 295 299 300 300 299 300 293 281 270 257 249 249 266 307 310 314 314 314 311 313 320 327 325 315 312 312 315 313 310 nan nan nan nan nan
287 285 286 288 290 298 299 302 303 304 303 304 306 306 307 308 309 307 305 303 303 301 298 300 302 306 309 313 317 321 325 327 330 331 332 332 331 327 322 316 307 303 303 304 305 306 304 301 299 296 294 291 291 288 290 294 303 302 289 278 268 262 264 278 311 320 320 318 318 321 322 323 325 322 317 316 316 316 314 nan nan nan nan nan nan
286 283 286 287 288 291 300 299 301 301 299 300 301 302 303 301 302 302 301 301 300 297 297 299 301 305 308 311 315 319 325 328 330 331 331 333 335 336 336 328 319 308 302 300 302 304 301 296 295 296 294 295 293 289 275 273 272 284 276 272 270 263 269 307 310 325 325 323 326 325 327 323 337 324 321 319 318 314 315 nan nan nan nan nan nan
285 285 284 284 287 290 292 300 299 297 297 299 300 301 299 295 297 301 298 297 295 294 295 296 300 304 305 309 313 318 323 324 327 328 330 332 334 334 333 329 327 316 307 301 300 303 300 294 293 292 295 295 288 281 262 242 232 231 252 266 271 268 268 303 312 325 330 328 328 326 328 325 337 327 326 322 319 319 318 nan nan nan nan nan nan
289 284 283 283 285 286 289 291 295 299 299 299 297 296 294 294 298 299 299 296 295 295 295 297 299 300 301 305 310 317 320 324 328 330 331 333 335 338 337 336 330 323 313 307 305 306 302 298 296 294 296 294 286 276 250 233 215 214 240 269 278 279 287 295 313 331 331 331 329 328 327 328 334 335 328 324 323 322 321 321 nan nan nan nan nan
291 289 285 283 282 281 283 288 292 291 292 296 295 293 292 295 296 299 297 294 293 294 293 294 294 297 300 302 310 316 318 322 326 328 330 332 336 338 339 340 337 330 324 319 317 312 307 302 298 298 296 302 288 272 245 208 202 187 213 264 281 290 295 297 320 334 333 333 326 323 330 339 343 342 336 330 328 325 320 316 315 nan nan nan nan
292 288 285 284 281 280 280 281 284 285 287 287 286 291 297 297 298 300 297 292 291 293 293 291 293 296 298 302 309 312 316 321 325 327 328 329 332 337 340 341 342 338 335 330 327 321 314 310 306 305 306 309 303 259 198 170 162 144 143 254 284 296 299 315 329 329 334 327 325 330 338 348 353 351 346 339 334 328 321 316 317 nan nan nan nan
291 288 284 279 277 276 277 279 279 280 282 284 286 287 295 299 299 298 296 292 292 289 288 289 291 294 297 301 306 309 315 324 328 330 328 328 329 332 339 341 340 343 339 336 331 325 319 312 313 314 312 311 281 205 167 155 141 132 116 96 296 300 317 327 333 335 336 331 333 nan 343 352 356 354 351 346 340 332 326 324 322 317 nan nan nan
285 284 282 277 272 273 273 273 272 274 279 282 284 286 292 297 294 296 296 292 287 286 284 288 289 292 293 298 297 297 309 322 325 331 329 330 333 335 335 340 341 341 340 337 335 330 327 321 316 313 309 293 271 229 170 156 149 133 114 93 300 319 324 nan 331 332 335 nan 337 338 347 351 354 354 351 348 345 337 334 331 329 327 nan nan nan
286 288 285 279 276 272 271 268 267 269 275 278 280 284 285 287 281 283 282 282 282 283 279 277 285 281 294 290 291 304 309 317 327 334 327 331 334 337 333 333 339 339 337 341 334 332 324 305 288 274 266 246 233 nan nan nan 186 191 187 214 304 320 nan nan nan 331 335 340 336 342 353 352 353 353 352 349 347 341 338 337 336 334 nan nan nan
291 292 288 286 278 276 272 268 266 270 272 276 278 278 278 277 279 279 278 279 279 275 272 276 274 280 279 286 295 302 307 313 325 335 330 334 334 338 333 330 332 336 336 339 338 328 317 302 277 275 270 265 nan nan nan nan nan 260 273 294 307 313 316 316 325 329 338 338 338 348 353 353 354 355 354 349 347 343 340 339 339 nan 336 nan nan
289 285 283 277 280 279 277 274 276 276 273 274 271 271 273 273 276 277 273 273 272 274 273 275 279 277 282 288 297 304 303 307 335 341 323 323 330 329 329 326 323 321 326 314 310 309 304 293 296 289 nan nan nan nan nan nan nan 314 nan nan nan 339 330 313 319 331 337 341 341 352 352 352 355 358 356 352 349 345 341 340 340 338 338 335 nan
278 276 278 282 281 280 278 278 277 275 275 275 271 267 268 270 273 273 272 273 274 276 276 277 279 279 284 293 297 300 300 306 308 307 313 322 328 329 321 318 320 323 320 317 319 331 nan nan nan nan nan nan nan nan nan nan nan nan nan nan nan nan 357 342 327 331 336 340 344 357 354 352 354 358 357 353 351 347 342 340 341 339 338 337 337
271 279 285 285 283 281 280 278 277 274 272 270 272 274 274 276 274 271 273 274 277 278 275 278 278 281 288 292 293 295 301 306 305 303 311 322 332 331 326 323 323 331 327 332 335 334 339 333 327 329 nan nan nan 338 336 335 340 340 348 nan nan nan nan nan 345 341 345 346 349 3 2 357 356 357 359 357 353 349 344 340 340 339 337 337 338
267 278 284 287 287 286 289 288 286 280 272 266 270 273 277 279 273 273 277 278 275 277 277 278 282 286 292 293 294 297 304 305 305 305 314 321 334 334 328 323 330 339 336 338 343 342 340 338 334 333 325 320 323 330 334 336 339 343 349 348 nan nan nan nan 356 356 352 351 350 358 2 3 359 359 2 4 2 355 350 346 342 340 339 337 338
270 294 300 302 299 297 297 298 292 285 278 271 272 276 276 280 285 290 284 281 276 275 277 283 287 295 295 296 295 302 307 306 300 301 310 314 329 324 322 325 330 344 339 337 345 345 343 337 337 332 327 322 320 327 333 335 337 340 342 344 342 344 349 nan 356 358 358 350 346 352 359 0 360 1 4 9 10 4 357 352 347 343 343 341 340
305 319 322 313 305 304 307 307 296 285 283 275 272 273 275 281 287 284 281 281 275 278 281 282 290 292 293 296 298 306 305 298 296 297 294 307 311 316 316 315 317 330 322 335 334 345 343 338 341 344 336 333 328 332 334 335 336 336 339 340 340 341 341 340 347 nan nan nan nan 346 357 357 359 1 8 9 9 9 3 355 348 342 338 338 344
313 318 325 322 307 304 312 318 307 297 297 279 267 272 273 278 283 283 277 282 277 277 274 278 281 286 292 297 301 300 302 298 294 285 288 297 303 310 313 313 312 309 308 337 341 342 1 348 347 349 344 338 330 334 326 329 329 331 332 333 336 339 340 337 336 337 337 338 341 340 351 355 359 3 6 7 9 10 6 357 350 337 340 338 328
301 312 325 324 315 305 304 304 301 303 303 288 272 272 267 271 277 274 273 275 273 271 271 273 277 281 283 284 289 292 295 292 286 279 281 293 302 308 311 306 303 309 322 348 335 349 355 1 359 351 348 342 339 332 326 324 319 318 317 318 328 330 334 333 335 336 335 337 333 332 333 346 354 0 3 3 6 8 6 2 359 341 340 346 338
308 313 309 310 311 310 305 297 293 295 297 292 279 270 265 264 264 269 273 269 270 269 271 273 276 275 276 280 282 284 286 286 282 278 285 295 301 302 300 298 295 304 317 326 333 338 346 347 344 345 345 333 332 324 325 317 311 309 307 309 316 316 320 321 326 329 330 328 327 325 326 326 334 348 352 357 359 1 5 8 2 348 334 344 339
308 308 301 301 308 313 311 302 297 294 295 295 283 268 258 254 263 270 271 271 271 272 273 272 271 271 272 274 276 278 279 282 279 281 283 284 284 283 281 286 285 279 280 289 301 308 313 312 318 327 327 322 320 314 313 310 303 297 299 304 310 315 318 315 318 315 317 317 318 320 321 316 316 320 328 341 348 352 355 357 0 353 349 346 345
305 301 297 307 313 307 300 294 298 295 293 288 279 268 259 255 258 264 270 272 274 275 272 267 269 269 269 269 272 274 275 273 276 275 277 277 277 278 281 277 269 272 276 286 291 289 290 289 299 307 305 307 302 304 295 291 294 298 296 302 303 310 310 310 310 310 307 307 309 308 308 307 308 310 312 317 323 329 337 343 351 350 344 338 339
295 303 309 309 312 306 288 282 283 284 285 282 278 272 268 264 261 263 270 273 273 273 271 268 268 268 268 267 269 271 271 271 271 275 271 271 272 277 278 273 262 270 277 276 280 281 284 290 297 295 303 295 299 297 294 296 295 292 296 298 301 302 302 303 304 305 304 305 302 303 302 303 304 306 307 306 307 307 309 315 326 333 334 334 341
300 297 294 291 297 293 287 278 273 273 274 277 270 266 270 271 262 262 267 270 270 271 270 270 269 268 269 271 271 272 271 269 267 268 267 265 270 273 273 266 262 268 267 267 269 269 285 288 290 295 289 288 289 286 289 285 289 292 297 298 301 302 299 297 295 295 298 301 299 298 297 296 296 299 299 300 299 299 296 297 301 305 310 315 319
288 286 285 281 281 286 292 284 275 270 267 271 270 262 266 270 264 259 262 264 267 267 267 269 268 270 272 272 272 273 271 268 263 261 264 264 264 267 264 260 261 261 261 263 266 270 280 284 282 283 291 292 285 283 279 282 284 290 295 297 296 293 290 292 292 293 296 293 293 293 294 294 296 294 295 296 295 294 291 286 282 282 279 281 285
282 279 277 281 282 282 280 277 271 267 266 272 272 265 265 270 266 262 262 260 261 263 265 267 269 273 276 275 270 269 267 264 260 256 256 259 261 264 260 255 257 256 256 259 263 269 272 278 281 279 282 284 280 277 278 282 288 291 293 295 292 291 293 293 292 295 290 288 287 288 291 293 292 290 293 293 292 290 289 281 266 270 269 276 282
283 279 276 275 275 272 270 271 268 263 263 265 264 262 265 265 265 266 263 261 258 258 263 265 269 270 272 274 268 261 259 257 256 252 251 252 255 257 255 253 255 255 257 259 258 261 267 268 275 281 285 284 285 284 286 292 293 297 299 299 298 296 298 296 293 290 289 289 288 290 290 287 288 287 285 285 286 286 284 286 287 286 284 270 274
289 283 279 277 277 275 271 267 264 263 263 259 259 263 267 271 272 265 262 261 260 261 259 263 265 267 267 268 265 258 252 251 250 248 250 252 253 250 250 250 253 256 258 258 257 260 262 266 268 280 282 281 277 277 279 284 292 nan nan nan 303 302 301 nan 293 292 291 289 291 290 287 289 287 287 285 284 283 283 283 284 284 283 282 270 254
292 291 286 285 286 285 282 276 270 267 270 269 266 271 272 271 267 267 267 265 263 261 260 260 261 263 264 264 262 256 249 245 244 247 248 249 247 245 249 252 253 256 259 262 265 262 261 270 282 280 280 278 273 273 274 nan nan nan nan nan nan 303 304 299 291 287 288 291 291 288 288 286 286 286 287 287 284 283 284 283 283 283 278 276 268
298 296 295 295 294 293 288 280 274 271 273 276 274 270 269 274 272 266 266 262 261 263 264 260 260 259 258 259 257 251 247 245 245 245 243 242 243 244 248 253 254 257 263 264 260 259 261 266 282 284 281 279 278 nan nan nan nan nan nan nan nan nan 300 295 290 283 288 289 289 288 287 286 284 286 286 285 283 282 283 284 285 280 277 273 269
303 301 297 298 301 298 292 285 280 279 278 275 274 274 269 271 272 265 260 259 256 263 265 261 259 258 254 252 249 246 243 239 238 240 239 237 242 246 250 253 253 258 259 256 259 261 267 nan nan nan nan nan nan nan nan nan nan nan nan nan nan nan 292 286 294 286 290 288 nan 285 286 285 284 nan nan 283 282 282 283 284 284 280 276 273 271
302 300 302 303 302 300 295 288 284 279 278 276 269 268 272 275 270 260 249 253 266 266 261 256 253 252 249 245 240 239 234 230 231 236 238 241 245 249 252 253 254 254 259 263 264 269 nan nan nan nan nan nan nan nan nan nan nan nan nan nan nan nan nan nan nan nan nan nan nan nan nan 282 nan nan nan nan nan nan nan nan nan nan 276 273 nan
306 306 305 305 302 303 297 290 282 277 274 273 273 273 274 274 270 255 252 260 261 263 259 247 245 248 246 237 234 231 229 231 235 238 242 246 247 248 251 253 255 255 262 267 272 278 nan nan nan nan nan nan nan nan nan nan nan nan nan nan nan nan nan nan nan nan nan nan nan nan nan nan nan nan nan nan nan nan nan nan nan nan nan nan nan
306 305 303 300 300 296 291 282 271 267 268 271 276 275 275 277 271 263 262 265 269 263 258 256 249 244 240 235 232 225 227 233 236 239 244 248 248 248 251 255 259 262 nan nan nan nan nan nan nan nan nan nan nan nan nan nan nan nan nan nan nan nan nan nan nan nan nan nan nan nan nan nan nan nan nan nan nan nan nan nan nan nan nan nan nan
300 295 296 293 291 287 284 274 265 261 262 270 275 267 267 266 265 263 264 267 265 249 243 243 249 243 232 227 222 216 219 230 233 239 244 247 249 252 258 263 nan nan nan nan nan nan nan nan nan nan nan nan nan nan nan nan nan nan nan nan nan nan nan nan nan nan nan nan nan nan nan nan nan nan nan nan nan nan nan nan nan nan nan nan nan
292 291 290 286 287 282 278 268 253 252 258 266 267 266 266 269 264 260 261 263 258 253 247 244 240 232 223 219 221 219 221 226 235 238 242 248 253 nan nan nan nan nan nan nan nan nan nan nan nan nan nan nan nan nan nan nan nan nan nan nan nan nan nan nan nan nan nan nan nan nan nan nan nan nan nan nan nan nan nan nan nan nan nan nan nan
288 285 284 282 277 273 271 261 256 261 252 246 259 271 267 273 269 264 257 249 250 241 233 229 225 216 219 219 228 227 227 229 235 240 242 248 254 nan nan nan nan nan nan nan nan nan nan nan nan nan nan nan nan nan nan nan nan nan nan nan nan nan nan nan nan nan nan nan nan nan nan nan nan nan nan nan nan nan nan nan nan nan nan nan nan
277 276 276 277 276 274 273 264 266 285 280 271 259 249 256 260 263 264 264 249 233 221 211 211 211 215 225 231 231 230 231 235 235 239 244 247 nan nan nan nan nan nan nan nan nan nan nan nan nan nan nan nan nan nan nan nan nan nan nan nan nan nan nan nan nan nan nan nan nan nan nan nan nan nan nan nan nan nan nan nan nan nan nan nan nan
275 278 276 276 275 274 273 274 279 278 273 266 272 269 253 253 256 260 258 247 227 219 210 210 221 237 242 238 238 235 233 236 239 241 246 nan nan nan nan nan nan nan nan nan nan nan nan nan nan nan nan nan nan nan nan nan nan nan nan nan nan nan nan nan nan nan nan nan nan nan nan nan nan nan nan nan nan nan nan nan nan nan nan nan nan